Birmingham, AL

9:43 AM CST on December 13, 2019 (GMT -0600)
Birmingham International

Weather History for KBHM - October, 2019

Change the Weather History Date:

Monday, October 21, 2019

  Actual Average Record
Temperature  
Mean Temperature 70 °F 62 °F  
Max Temperature 75 °F 74 °F 89 °F (1963)
Min Temperature 64 °F 51 °F 30 °F (1913)
Degree Days  
Heating Degree Days 0 5  
Month to date heating degree days 38 59  
Since 1 July heating degree days 38 68  
Cooling Degree Days 4 2  
Month to date cooling degree days 166 72  
Year to date cooling degree days 2615 2022  
Growing Degree Days 20 (Base 50)    
Moisture  
Dew Point 64 °F    
Average Humidity 84    
Maximum Humidity 93    
Minimum Humidity 71    
Precipitation  
Precipitation 0.27 in 0.11 in 3.08 in (1959)
Month to date precipitation 1.91 2.31  
Year to date precipitation 38.97 43.29  
Snow  
Snow 0.00 in 0.00 in - ()
Month to date snowfall 0.0 0.0  
Since 1 July snowfall 0.0 0.0  
Since 1 September snowfall 0.0 0.0  
Snow Depth 0.00 in    
Sea Level Pressure  
Sea Level Pressure 29.91 in    
Wind  
Wind Speed 5 mph ()    
Max Wind Speed 22 mph    
Max Gust Speed 31 mph    
Visibility 9.8 miles    
Events Rain    
T = Trace of Precipitation, MM = Missing Value Source: Averaged Metar Reports

Daily Weather History Graph

Daily Weather History Graph

Search for Another Location

Airport or City:

Astronomy

Oct. 21, 2019 Rise Set
Actual Time 6:56 AM CDT 6:06 PM CDT
Civil Twilight 6:31 AM CDT 6:31 PM CDT
Nautical Twilight 6:02 AM CDT 7:00 PM CDT
Astronomical Twilight 5:33 AM CDT 7:29 PM CDT
Moon No Moon Rise 2:04 PM CDT (10/21)
Length of Visible Light 12h 00m
Length of Day
11h 10m
Waning Gibbous, 48% of the Moon is Illuminated
Oct 21
Waning Gibbous
Oct 27
New
Nov 4
First Quarter
Nov 12
Full
Nov 19
Last Quarter

Hourly Weather History & Observations

Time (CDT) Temp. Dew Point Humidity Pressure Visibility Wind Dir Wind Speed Gust Speed Precip Events Conditions
12:53 AM 64.9 °F 59.0 °F 81% 29.94 in 10.0 mi SSE 4.6 mph - N/A   Clear
1:53 AM 64.9 °F 60.1 °F 84% 29.93 in 10.0 mi SSE 5.8 mph - N/A   Scattered Clouds
2:53 AM 64.9 °F 60.1 °F 84% 29.92 in 10.0 mi SE 9.2 mph - N/A   Partly Cloudy
3:53 AM 64.0 °F 60.1 °F 87% 29.91 in 10.0 mi SE 5.8 mph - N/A   Clear
4:53 AM 64.9 °F 60.1 °F 84% 29.92 in 10.0 mi SE 3.5 mph - N/A   Clear
5:53 AM 64.9 °F 60.1 °F 84% 29.92 in 10.0 mi Calm Calm - N/A   Scattered Clouds
6:53 AM 64.0 °F 60.1 °F 87% 29.92 in 10.0 mi Variable 4.6 mph - N/A   Mostly Cloudy
7:53 AM 64.9 °F 61.0 °F 87% 29.92 in 10.0 mi Variable 4.6 mph - N/A   Mostly Cloudy
8:53 AM 69.1 °F 62.1 °F 78% 29.93 in 10.0 mi South 8.1 mph - N/A   Mostly Cloudy
9:53 AM 72.0 °F 62.1 °F 71% 29.92 in 10.0 mi SSE 8.1 mph - N/A   Mostly Cloudy
10:37 AM 72.0 °F 63.0 °F 73% 29.95 in 10.0 mi SE 8.1 mph - N/A   Mostly Cloudy
10:53 AM 73.9 °F 64.0 °F 71% 29.94 in 10.0 mi South 12.7 mph - N/A   Mostly Cloudy
11:53 AM 75.0 °F 66.0 °F 73% 29.96 in 10.0 mi SSW 12.7 mph - N/A   Overcast
12:53 PM 75.0 °F 66.0 °F 73% 29.94 in 10.0 mi South 9.2 mph - N/A   Overcast
1:53 PM 73.0 °F 69.1 °F 87% 29.91 in 10.0 mi South 6.9 mph - 0.20 in Rain Light Rain
2:31 PM 73.9 °F 69.1 °F 85% 29.93 in 10.0 mi South 8.1 mph - 0.00 in   Mostly Cloudy
2:53 PM 73.0 °F 68.0 °F 84% 29.90 in 10.0 mi SSW 10.4 mph - 0.00 in Rain Light Rain
3:35 PM 72.0 °F 66.0 °F 81% 29.93 in 6.0 mi SW 8.1 mph - 0.01 in Rain Light Rain
3:48 PM 71.6 °F 66.2 °F 83% 29.92 in 10.0 mi WSW 6.9 mph - 0.02 in Rain Light Rain
3:53 PM 72.0 °F 66.9 °F 84% 29.91 in 10.0 mi SW 6.9 mph - 0.02 in   Mostly Cloudy
4:53 PM 71.1 °F 66.0 °F 84% 29.90 in 10.0 mi SW 6.9 mph - 0.00 in Rain Light Rain
5:53 PM 69.1 °F 66.9 °F 93% 29.87 in 9.0 mi East 4.6 mph - 0.01 in Rain Light Rain
6:53 PM 70.0 °F 66.0 °F 87% 29.87 in 10.0 mi East 4.6 mph - 0.00 in   Overcast
7:53 PM 69.1 °F 64.9 °F 87% 29.88 in 10.0 mi Calm Calm - N/A   Mostly Cloudy
8:53 PM 68.0 °F 64.9 °F 90% 29.88 in 10.0 mi Calm Calm - N/A   Mostly Cloudy
9:53 PM 69.1 °F 64.9 °F 87% 29.87 in 10.0 mi Calm Calm - N/A   Overcast
10:06 PM 69.1 °F 64.9 °F 87% 29.89 in 10.0 mi Calm Calm - N/A   Overcast
10:12 PM 69.1 °F 64.9 °F 87% 29.90 in 10.0 mi Calm Calm - N/A   Overcast
10:27 PM 70.0 °F 66.0 °F 87% 29.90 in 10.0 mi Variable 5.8 mph - N/A   Overcast
10:53 PM 71.1 °F 66.9 °F 87% 29.88 in 10.0 mi SSE 8.1 mph - N/A   Overcast
11:19 PM 71.1 °F 68.0 °F 90% 29.90 in 10.0 mi South 10.4 mph - N/A   Mostly Cloudy
11:53 PM 71.1 °F 68.0 °F 90% 29.88 in 10.0 mi SSW 8.1 mph - N/A   Overcast